Terminal Aerodrome Forecast
Issued by NWS La Crosse, WI

Home | Current Version | Previous Version | Text Only | Print | Product List | Glossary On
Versions: 1 2 3 4 5 6 7 8 9 10 11 12 13 14 15 16 17 18 19 20 21 22 23 24 25 26 27 28 29 30 31 32 33 34 35 36 37 38 39 40 41 42 43 44 45 46 47 48 49 50
000
FTUS43 KARX 011839 AAA
TAFLSE
TAF AMD
KLSE 011839Z 0119/0218 28010KT P6SM VCTS SCT030CB BKN035
      TEMPO 0119/0120 4SM -RA BKN040 OVC060
     FM012000 28011KT P6SM SCT045
     FM020000 27005KT P6SM SKC
     FM020700 24004KT P6SM SCT100
     FM021400 26006KT P6SM BKN100=

USA.gov is the U.S. government's official web portal to all federal, state and local government web resources and services.